Location: Rio Negrinho
(26.2394°S, 49.4999°W)
Time: 08:23:09
(UTC+00:00)

H-2A R/B - Pass Details

Date: 08 October 2020
Orbit: 500 x 542 km, 97.3° (Epoch: 17 June)

Event Time Altitude Azimuth Distance (km) Brightness Sun altitude
Rises 21:57:00 0° 198° (SSW) 2,714 6.8 -8.7°
Reaches altitude 10° 22:00:38 10° 234° (SW) 1,802 6.6 -9.5°
Maximum altitude 22:01:44 11° 250° (WSW) 1,728 6.9 -9.7°
Drops below altitude 10° 22:02:51 10° 267° (W) 1,789 7.0 -9.9°
Sets 22:06:25 0° 303° (WNW) 2,655 7.0 -10.7°
